Location: Grasslands National Park East Block
(49.0708°N, 106.5295°W)
Time: 22:39:48
(UTC-06:00)

Vanguard 1 Rocket - Pass Details

Date: 30 September 2019
Orbit: 650 x 4226 km, 34.3° (Epoch: 19 October)

Event Time Altitude Azimuth Distance (km) Brightness Sun altitude
Rises 21:01:01 0° 274° (W) 8,247 13.5 -22.3°
Reaches altitude 10° 21:07:52 10° 267° (W) 6,872 12.7 -23.3°
Maximum altitude 21:25:10 35° 213° (SSW) 3,717 10.4 -25.9°
Enters shadow 21:32:11 22° 167° (SSE) 3,671 10.1 -26.9°
Drops below altitude 10° 21:35:32 10° 152° (SSE) 4,125 - -27.4°
Sets 21:38:29 0° 143° (SE) 4,726 - -27.8°
